"startDT [UTC]","vpos","CH4 [ppm]","stdev(CH4) [ppm]","CO2 [ppm]","stdev(CO2) [ppm]","H2O [ppm]","stdev(H2O)","p_LGR [torr]","T_LGR [C]","mt1_LGR [us]","mt2_LGR [us]","T_ECpre [C]","T_EC1 [C]","T_EC2 [C]","p_inlet [hPa]","p_in [hPa]","p_out [hPa]","T_inlet [C]","RH_inlet [%]","dwpt_inlet [C]","T_vent [C]","RH_vent [%]","dwpt_vent [C]","flow_vent [l min-1]","flow_inlet [l min-1]","dwpt_sample [C]","T_room [C]"
2012-05-04 00:00:00,0.0,1.9110,0.0010,403.56,0.39,260.5,41.7,138.12,28.08,24.61,36.32,0.04,-272.74,-272.74,-54,559,-934,22.7,6.1,-16.4,22.9,6.4,-15.9,5.73,2.31,-23.6,27.8
2012-05-04 00:01:00,0.0,1.9109,0.0008,403.58,0.37,282.5,39.3,138.11,28.10,24.61,36.32,0.04,-272.74,-272.74,-55,559,-934,22.7,6.0,-16.6,22.9,6.3,-16.1,5.73,2.34,-23.6,27.9
2012-05-04 00:02:00,0.0,1.9112,0.0011,403.42,0.39,278.5,40.8,138.11,28.11,24.61,36.33,0.04,-272.74,-272.74,-54,559,-934,22.8,6.0,-16.6,22.9,6.2,-16.1,5.73,2.44,-23.5,27.9
2012-05-04 00:03:00,0.0,1.9116,0.0011,403.57,0.39,283.8,38.6,138.11,28.12,24.61,36.32,0.04,-272.74,-272.73,-54,559,-934,22.8,6.0,-16.6,22.9,6.3,-16.1,5.73,2.36,-23.5,28.0
2012-05-04 00:04:00,0.0,1.9128,0.0013,403.56,0.37,291.0,33.5,138.11,28.14,24.61,36.32,0.04,-272.73,-272.73,-55,559,-934,22.9,6.1,-16.5,23.0,6.3,-16.0,5.73,2.29,-23.4,28.1
2012-05-04 00:05:00,0.0,1.9129,0.0011,403.44,0.37,284.3,38.7,138.11,28.15,24.61,36.32,0.04,-272.74,-272.74,-54,559,-934,22.9,6.1,-16.4,23.0,6.3,-15.9,5.73,2.41,-23.3,28.2
2012-05-04 00:06:00,0.0,1.9129,0.0011,403.53,0.38,293.2,41.8,138.11,28.17,24.62,36.32,0.04,-272.73,-272.74,-54,559,-934,22.9,6.1,-16.3,23.0,6.4,-15.8,5.73,2.43,-23.3,28.2
2012-05-04 00:07:00,0.0,1.9125,0.0010,403.50,0.41,291.0,42.7,138.11,28.18,24.62,36.33,0.04,-272.73,-272.73,-55,559,-934,23.0,6.1,-16.3,23.1,6.4,-15.7,5.73,2.26,-23.3,27.5
2012-05-04 00:08:00,0.0,1.9126,0.0009,403.46,0.38,282.9,38.4,138.11,28.19,24.62,36.33,0.04,-272.73,-272.74,-55,560,-934,23.0,6.2,-16.2,23.0,6.4,-15.7,5.73,2.49,-23.3,27.0
2012-05-04 00:09:00,0.0,1.9123,0.0010,403.50,0.37,268.2,36.9,138.12,28.19,24.62,36.33,0.04,-272.73,-272.74,-54,560,-934,22.9,6.2,-16.2,23.0,6.4,-15.7,5.73,2.32,-23.5,26.6
2012-05-04 00:10:00,0.0,1.9113,0.0010,403.69,0.48,270.8,41.4,138.12,28.19,24.61,36.33,0.04,-272.74,-272.73,-55,560,-935,22.9,6.3,-16.1,23.0,6.5,-15.6,5.73,2.30,-23.6,26.4
2012-05-04 00:11:00,0.0,1.9111,0.0009,403.67,0.35,248.1,35.6,138.13,28.18,24.62,36.33,0.04,-272.74,-272.74,-55,560,-934,22.9,6.3,-16.1,22.9,6.5,-15.6,5.73,2.43,-23.7,26.1
2012-05-04 00:12:00,0.0,1.9109,0.0010,403.65,0.34,233.5,37.3,138.13,28.17,24.61,36.32,0.04,-272.74,-272.74,-55,560,-934,22.8,6.3,-16.1,22.9,6.5,-15.6,5.73,2.46,-23.8,25.9
2012-05-04 00:13:00,0.0,1.9098,0.0010,403.63,0.40,241.4,43.5,138.13,28.16,24.62,36.31,0.04,-272.74,-272.74,-55,560,-935,22.8,6.3,-16.0,22.8,6.6,-15.5,5.73,2.39,-23.9,25.7
2012-05-04 00:14:00,0.0,1.9095,0.0011,403.67,0.35,227.5,38.5,138.14,28.14,24.62,36.32,0.04,-272.74,-272.74,-55,560,-935,22.8,6.3,-16.1,22.8,6.6,-15.6,5.73,2.32,-24.0,25.7
2012-05-04 00:15:00,0.0,1.9098,0.0008,403.63,0.41,215.9,42.9,138.14,28.12,24.61,36.31,0.04,-272.74,-272.73,-55,559,-934,22.7,6.2,-16.3,22.7,6.5,-15.8,5.73,2.32,-24.1,25.6
2012-05-04 00:16:00,0.0,1.9097,0.0011,403.44,0.40,199.2,41.9,138.15,28.10,24.61,36.32,0.04,-272.74,-272.74,-55,559,-935,22.7,6.2,-16.4,22.7,6.4,-16.0,5.73,2.36,-24.2,25.6
2012-05-04 00:17:00,0.0,1.9093,0.0010,403.48,0.37,199.0,37.6,138.15,28.08,24.62,36.31,0.04,-272.73,-272.74,-55,559,-935,22.7,6.1,-16.6,22.7,6.3,-16.1,5.73,2.47,-24.3,26.0
2012-05-04 00:18:00,0.0,1.9095,0.0010,403.47,0.35,201.1,44.9,138.15,28.06,24.61,36.32,0.04,-272.74,-272.74,-56,559,-934,22.7,6.1,-16.6,22.7,6.3,-16.1,5.73,2.37,-24.2,26.4
"startDT [UTC]","vpos","CH4 [ppm]","stdev(CH4) [ppm]","CO2 [ppm]","stdev(CO2) [ppm]","H2O [ppm]","stdev(H2O)","p_LGR [torr]","T_LGR [C]","mt1_LGR [us]","mt2_LGR [us]","T_ECpre [C]","T_EC1 [C]","T_EC2 [C]","p_inlet [hPa]","p_in [hPa]","p_out [hPa]","T_inlet [C]","RH_inlet [%]","dwpt_inlet [C]","T_vent [C]","RH_vent [%]","dwpt_vent [C]","flow_vent [l min-1]","flow_inlet [l min-1]","dwpt_sample [C]","T_room [C]"
2012-05-04 00:22:00,0.0,1.9059,0.0022,403.48,0.35,225.2,40.3,138.13,28.05,24.61,36.32,0.04,-272.74,-272.74,-56,558,-934,22.7,6.3,-16.2,22.8,6.5,-15.8,5.73,2.28,-23.9,27.3
2012-05-04 00:23:00,0.0,1.9067,0.0017,403.60,0.37,234.2,40.1,138.13,28.05,24.61,36.31,0.04,-272.73,-272.73,-55,559,-934,22.7,6.2,-16.3,22.8,6.5,-15.8,5.73,2.40,-23.9,27.4
2012-05-04 00:24:00,0.0,1.9066,0.0011,403.60,0.26,246.4,44.1,138.13,28.06,24.62,36.32,0.04,-272.74,-272.74,-55,559,-934,22.7,6.2,-16.3,22.8,6.5,-15.8,5.73,2.43,-23.8,27.5
2012-05-04 00:25:00,0.0,1.9054,0.0011,403.52,0.45,239.0,33.3,138.12,28.07,24.61,36.32,0.04,-272.74,-272.74,-55,558,-934,22.7,6.3,-16.2,22.8,6.5,-15.7,5.73,2.28,-23.7,27.5
2012-05-04 00:26:00,0.0,1.9055,0.0013,403.51,0.37,251.4,38.2,138.12,28.08,24.61,36.32,0.04,-272.73,-272.74,-55,558,-934,22.7,6.3,-16.1,22.8,6.5,-15.6,5.73,2.39,-23.7,27.6
2012-05-04 00:27:00,0.0,1.9063,0.0012,403.45,0.35,264.8,43.4,138.12,28.09,24.61,36.32,0.04,-272.73,-272.73,-55,558,-934,22.7,6.2,-16.2,22.9,6.5,-15.7,5.73,2.44,-23.6,27.7
2012-05-04 00:28:00,0.0,1.9056,0.0009,403.60,0.37,264.0,33.9,138.12,28.10,24.61,36.32,0.04,-272.74,-272.74,-55,559,-934,22.8,6.2,-16.2,22.9,6.5,-15.7,5.73,2.30,-23.6,27.7
2012-05-04 00:29:00,0.0,1.9070,0.0013,403.51,0.40,273.9,43.5,138.12,28.11,24.61,36.32,0.04,-272.73,-272.74,-55,559,-934,22.8,6.1,-16.4,22.9,6.3,-15.9,5.73,2.35,-23.5,27.8
2012-05-04 00:30:00,0.0,1.9100,0.0015,403.48,0.38,269.7,33.6,138.11,28.12,24.62,36.33,0.04,-272.73,-272.74,-55,559,-934,22.9,6.1,-16.5,22.9,6.3,-16.0,5.73,2.45,-23.4,27.8
2012-05-04 00:31:00,0.0,1.9121,0.0010,403.40,0.37,276.1,35.1,138.11,28.14,24.62,36.33,0.04,-272.74,-272.74,-55,559,-934,22.9,5.8,-16.9,23.0,6.1,-16.4,5.73,2.33,-23.4,27.9
2012-05-04 00:32:00,0.0,1.9130,0.0012,403.44,0.39,289.3,40.5,138.11,28.15,24.61,36.33,0.04,-272.74,-272.74,-55,559,-934,22.9,5.6,-17.4,23.0,5.8,-16.8,5.73,2.31,-23.3,27.9
2012-05-04 00:33:00,0.0,1.9127,0.0011,403.44,0.43,292.6,41.1,138.11,28.17,24.62,36.33,0.04,-272.73,-272.73,-55,559,-934,22.9,5.5,-17.7,23.0,5.7,-17.1,5.73,2.43,-23.3,28.1
2012-05-04 00:34:00,0.0,1.9130,0.0012,403.38,0.42,294.2,33.6,138.11,28.18,24.62,36.33,0.04,-272.74,-272.74,-55,559,-934,22.9,5.3,-18.0,23.1,5.5,-17.4,5.73,2.40,-23.3,28.1
2012-05-04 00:35:00,0.0,1.9123,0.0009,403.37,0.48,295.1,33.2,138.11,28.20,24.62,36.34,0.04,-272.74,-272.74,-55,560,-934,23.0,5.2,-18.2,23.1,5.4,-17.6,5.73,2.29,-23.2,28.2
2012-05-04 00:36:00,0.0,1.9108,0.0011,403.31,0.39,291.8,35.8,138.11,28.21,24.62,36.34,0.04,-272.73,-272.74,-55,559,-934,23.0,5.2,-18.3,23.1,5.4,-17.7,5.73,2.41,-23.2,27.7
2012-05-04 00:37:00,0.0,1.9082,0.0010,403.43,0.45,305.3,39.3,138.11,28.23,24.62,36.34,0.04,-272.74,-272.74,-55,560,-934,23.0,5.1,-18.5,23.1,5.3,-17.9,5.73,2.32,-23.2,27.1
2012-05-04 00:38:00,0.0,1.9084,0.0012,403.51,0.40,283.0,39.8,138.11,28.23,24.62,36.33,0.04,-272.74,-272.74,-55,560,-934,23.0,5.0,-18.5,23.1,5.3,-18.0,5.73,2.48,-23.3,26.6
2012-05-04 00:39:00,0.0,1.9077,0.0008,403.57,0.35,280.0,50.3,138.12,28.23,24.62,36.33,0.04,-272.74,-272.73,-55,560,-935,23.0,5.0,-18.6,23.0,5.2,-18.1,5.73,2.32,-23.5,26.4
2012-05-04 00:40:00,0.0,1.9104,0.0015,403.64,0.33,266.8,34.4,138.12,28.23,24.62,36.33,0.04,-272.73,-272.73,-55,560,-935,23.0,4.9,-18.9,23.0,5.1,-18.5,5.73,2.30,-23.6,26.2
2012-05-04 00:41:00,0.0,1.9108,0.0010,403.72,0.34,240.8,40.7,138.13,28.22,24.62,36.32,0.04,-272.74,-272.74,-55,560,-935,22.9,4.8,-19.2,23.0,5.0,-18.7,5.73,2.40,-23.7,26.1
2012-05-04 00:42:00,0.0,1.9078,0.0013,403.71,0.36,249.7,37.4,138.13,28.21,24.62,36.32,0.04,-272.74,-272.74,-55,560,-935,22.9,4.9,-18.9,22.9,5.1,-18.5,5.73,2.45,-23.8,26.0
2012-05-04 00:43:00,0.0,1.9068,0.0009,403.64,0.37,225.5,43.0,138.14,28.19,24.62,36.32,0.04,-272.74,-272.74,-55,560,-935,22.9,5.0,-18.6,22.9,5.2,-18.2,5.73,2.41,-23.9,25.8
2012-05-04 00:44:00,0.0,1.9061,0.0010,403.60,0.36,225.7,41.7,138.14,28.18,24.61,36.32,0.04,-272.74,-272.74,-55,560,-935,22.9,5.1,-18.6,22.8,5.3,-18.1,5.73,2.33,-24.0,25.7
2012-05-04 00:45:00,0.0,1.9048,0.0010,403.49,0.37,219.7,39.3,138.14,28.16,24.62,36.32,0.04,-272.74,-272.74,-56,560,-935,22.8,5.2,-18.4,22.8,5.4,-18.0,5.73,2.30,-24.1,25.6
2012-05-04 00:46:00,0.0,1.9052,0.0012,403.48,0.34,216.9,42.6,138.15,28.14,24.62,36.31,0.04,-272.73,-272.74,-56,559,-935,22.8,5.1,-18.5,22.8,5.3,-18.1,5.73,2.36,-24.1,25.6
2012-05-04 00:47:00,0.0,1.9069,0.0016,403.50,0.37,203.6,37.2,138.15,28.12,24.62,36.32,0.04,-272.74,-272.73,-56,559,-934,22.8,5.0,-18.8,22.7,5.2,-18.4,5.73,2.49,-24.2,26.1
2012-05-04 00:48:00,0.0,1.9057,0.0013,403.48,0.37,204.9,37.2,138.14,28.11,24.61,36.32,0.04,-272.74,-272.74,-55,559,-935,22.8,5.1,-18.6,22.8,5.3,-18.2,5.73,2.29,-24.1,26.6
2012-05-04 00:49:00,0.0,1.9045,0.0009,403.51,0.38,208.5,38.8,138.14,28.10,24.62,36.31,0.04,-272.74,-272.74,-56,559,-934,22.8,5.2,-18.3,22.8,5.5,-17.8,5.73,2.46,-24.0,26.9
2012-05-04 00:50:00,0.0,1.9039,0.0010,403.43,0.41,228.0,38.6,138.13,28.10,24.62,36.32,0.04,-272.73,-272.73,-55,559,-934,22.8,5.4,-17.9,22.8,5.6,-17.4,5.73,2.27,-24.0,27.1
2012-05-04 00:51:00,0.0,1.9042,0.0008,403.40,0.33,224.6,41.9,138.13,28.10,24.61,36.32,0.04,-272.73,-272.74,-56,559,-934,22.8,5.5,-17.7,22.9,5.7,-17.2,5.73,2.45,-23.9,27.2
2012-05-04 00:52:00,0.0,1.9031,0.0012,403.59,0.33,242.6,43.1,138.13,28.10,24.62,36.32,0.04,-272.74,-272.73,-55,559,-934,22.9,5.6,-17.4,22.9,5.8,-16.9,5.73,2.37,-23.8,27.4
2012-05-04 00:53:00,0.0,1.9041,0.0009,403.48,0.35,249.0,39.5,138.12,28.11,24.62,36.32,0.04,-272.74,-272.74,-55,559,-934,22.9,5.6,-17.4,22.9,5.9,-16.9,5.73,2.29,-23.8,27.5
2012-05-04 00:54:00,0.0,1.9065,0.0012,403.47,0.43,252.1,48.2,138.12,28.12,24.61,36.32,0.04,-272.74,-272.73,-55,559,-934,22.9,5.5,-17.6,22.9,5.8,-17.0,5.73,2.45,-23.7,27.6
2012-05-04 00:55:00,0.0,1.9053,0.0009,403.45,0.33,260.9,37.8,138.12,28.13,24.61,36.33,0.04,-272.74,-272.74,-55,559,-934,22.9,5.5,-17.5,23.0,5.8,-17.0,5.73,2.38,-23.7,27.7
2012-05-04 00:56:00,0.0,1.9051,0.0010,403.49,0.38,263.6,44.7,138.12,28.14,24.62,36.33,0.04,-272.74,-272.74,-55,559,-934,22.9,5.5,-17.5,23.0,5.8,-17.0,5.73,2.28,-23.6,27.8
2012-05-04 00:57:00,0.0,1.9050,0.0010,403.41,0.37,274.2,38.1,138.11,28.16,24.62,36.32,0.04,-272.74,-272.73,-55,559,-934,23.0,5.6,-17.4,23.0,5.8,-16.8,5.73,2.42,-23.5,27.8
2012-05-04 00:58:00,0.0,1.9054,0.0011,403.36,0.34,265.4,31.9,138.11,28.17,24.62,36.33,0.04,-272.74,-272.74,-55,559,-934,23.0,5.6,-17.3,23.1,5.9,-16.8,5.73,2.42,-23.5,27.9
2012-05-04 00:59:00,0.0,1.9058,0.0010,403.34,0.39,268.9,37.8,138.11,28.19,24.61,36.34,0.04,-272.74,-272.74,-55,559,-934,23.0,5.6,-17.3,23.1,5.9,-16.7,5.73,2.29,-23.4,27.9
2012-05-04 01:00:00,1.0,1.8888,0.0121,387.26,11.26,289.6,33.6,138.11,28.20,24.61,36.34,0.04,-272.73,-272.73,-55,524,-934,23.1,5.7,-17.1,23.1,5.9,-16.6,5.73,2.31,-23.4,28.0
2012-05-04 01:01:00,1.0,1.8748,0.0010,374.45,0.39,305.3,34.8,138.11,28.22,24.62,36.35,0.04,-272.74,-272.74,-55,523,-934,23.1,5.7,-17.0,23.2,6.0,-16.5,5.73,2.44,-23.3,28.1
2012-05-04 01:02:00,1.0,1.8749,0.0010,374.43,0.39,316.3,39.8,138.10,28.23,24.62,36.35,0.04,-272.74,-272.74,-55,524,-934,23.1,5.7,-17.0,23.2,5.9,-16.5,5.73,2.33,-23.3,28.1
2012-05-04 01:03:00,1.0,1.8749,0.0010,374.35,0.37,305.9,39.6,138.10,28.25,24.62,36.36,0.04,-272.74,-272.74,-55,523,-934,23.2,5.8,-16.9,23.2,6.0,-16.4,5.73,2.29,-23.2,28.1
2012-05-04 01:04:00,1.0,1.8752,0.0011,374.35,0.42,306.1,41.6,138.10,28.27,24.62,36.35,0.04,-272.73,-272.74,-55,523,-934,23.2,5.7,-17.0,23.3,5.9,-16.5,5.73,2.48,-23.2,27.5
2012-05-04 01:05:00,1.0,1.8750,0.0011,374.41,0.32,304.6,31.7,138.11,28.28,24.62,36.35,0.04,-272.74,-272.74,-55,522,-934,23.2,5.7,-17.0,23.2,5.9,-16.5,5.73,2.26,-23.3,27.1
2012-05-04 01:06:00,1.0,1.8750,0.0009,374.34,0.38,301.3,41.9,138.11,28.28,24.62,36.36,0.04,-272.74,-272.74,-55,522,-935,23.2,5.7,-16.9,23.2,6.0,-16.4,5.73,2.40,-23.3,26.9
2012-05-04 01:07:00,4.0,1.8458,0.0197,382.20,5.03,302.6,33.7,138.12,28.28,24.62,36.35,0.04,-272.74,-272.74,-55,484,-935,23.2,5.6,-17.3,23.2,5.8,-16.8,5.73,2.42,-23.4,26.7
2012-05-04 01:08:00,4.0,1.8246,0.0010,387.72,0.42,297.2,37.9,138.12,28.28,24.62,36.34,0.04,-272.74,-272.74,-55,480,-935,23.2,5.7,-17.0,23.2,5.9,-16.5,5.73,2.31,-23.5,26.4
2012-05-04 01:09:00,4.0,1.8245,0.0011,387.90,0.38,289.4,32.6,138.12,28.27,24.62,36.33,0.04,-272.74,-272.74,-55,478,-935,23.2,5.7,-17.1,23.2,5.9,-16.6,5.73,2.29,-23.6,26.1
2012-05-04 01:10:00,4.0,1.8242,0.0011,387.81,0.37,287.8,41.6,138.13,28.26,24.62,36.34,0.04,-272.73,-272.74,-55,477,-935,23.2,5.7,-17.0,23.1,5.9,-16.6,5.73,2.41,-23.7,26.0
2012-05-04 01:11:00,4.0,1.8234,0.0010,387.81,0.35,281.4,35.2,138.13,28.25,24.62,36.33,0.04,-272.73,-272.73,-56,477,-935,23.2,5.7,-17.1,23.1,5.9,-16.6,5.73,2.46,-23.8,26.0
2012-05-04 01:12:00,4.0,1.8226,0.0011,387.76,0.34,265.9,40.6,138.13,28.23,24.62,36.33,0.04,-272.74,-272.74,-56,476,-935,23.2,5.7,-17.1,23.1,5.9,-16.6,5.73,2.37,-23.9,25.9
2012-05-04 01:13:00,4.0,1.8225,0.0009,387.81,0.36,262.1,43.3,138.14,28.22,24.62,36.33,0.04,-272.74,-272.74,-56,476,-935,23.1,5.7,-17.1,23.1,5.9,-16.6,5.73,2.29,-23.9,25.7
2012-05-04 01:14:00,5.0,1.7196,0.0638,364.26,14.55,186.8,51.4,138.14,28.20,24.62,36.33,0.04,-272.74,-272.74,-56,723,-935,23.1,5.8,-16.8,23.0,6.0,-16.4,5.73,2.36,-24.0,25.7
2012-05-04 01:15:00,5.0,1.6522,0.0009,348.99,0.35,146.5,41.9,138.14,28.18,24.62,36.35,0.04,-272.74,-272.74,-56,736,-935,23.1,6.0,-16.5,23.0,6.2,-16.1,5.73,2.46,-24.1,26.1
2012-05-04 01:16:00,5.0,1.6521,0.0009,348.87,0.36,145.1,40.2,138.14,28.17,24.62,36.35,0.04,-272.74,-272.74,-56,740,-935,23.1,6.0,-16.4,23.0,6.3,-16.0,5.73,2.35,-24.1,26.7
2012-05-04 01:17:00,5.0,1.6524,0.0011,348.99,0.37,151.5,43.7,138.14,28.16,24.62,36.35,0.04,-272.74,-272.74,-56,731,-935,23.1,6.0,-16.4,23.1,6.3,-15.9,5.73,2.39,-24.1,27.1
2012-05-04 01:18:00,5.0,1.6522,0.0008,348.94,0.35,165.3,33.5,138.13,28.16,24.62,36.35,0.04,-272.74,-272.74,-56,726,-935,23.1,6.0,-16.4,23.1,6.3,-15.9,5.73,2.30,-24.0,27.4
2012-05-04 01:19:00,5.0,1.6530,0.0009,348.90,0.37,171.8,36.2,138.13,28.16,24.62,36.35,0.04,-272.74,-272.74,-56,725,-934,23.2,5.9,-16.6,23.2,6.1,-16.1,5.73,2.46,-23.9,27.6
2012-05-04 01:20:00,5.0,1.6531,0.0009,348.97,0.39,185.0,32.6,138.13,28.17,24.62,36.35,0.04,-272.74,-272.73,-56,724,-934,23.2,6.0,-16.4,23.2,6.2,-16.0,5.73,2.32,-23.9,27.7
2012-05-04 01:21:00,2.0,1.7671,0.0753,374.89,16.96,240.0,52.3,138.12,28.18,24.62,36.34,0.04,-272.74,-272.74,-55,470,-934,23.3,6.0,-16.4,23.3,6.2,-15.9,5.73,2.27,-23.8,27.9
2012-05-04 01:22:00,2.0,1.8491,0.0007,393.24,0.33,293.0,32.1,138.12,28.19,24.62,36.34,0.04,-272.74,-272.74,-56,472,-934,23.3,6.1,-16.2,23.3,6.3,-15.7,5.73,2.44,-23.6,28.0
2012-05-04 01:23:00,2.0,1.8496,0.0011,393.30,0.41,301.8,30.7,138.11,28.20,24.62,36.34,0.04,-272.74,-272.74,-56,472,-934,23.3,6.1,-16.0,23.3,6.4,-15.6,5.73,2.36,-23.6,28.1
2012-05-04 01:24:00,2.0,1.8502,0.0009,393.19,0.40,301.1,38.9,138.11,28.22,24.62,36.34,0.04,-272.74,-272.73,-55,473,-934,23.4,6.2,-15.9,23.4,6.4,-15.4,5.73,2.29,-23.5,28.2
2012-05-04 01:25:00,2.0,1.8504,0.0009,393.29,0.42,306.9,36.7,138.11,28.23,24.62,36.35,0.04,-272.74,-272.74,-56,473,-934,23.4,6.1,-16.0,23.4,6.3,-15.6,5.73,2.39,-23.4,28.3
2012-05-04 01:26:00,2.0,1.8505,0.0010,393.26,0.39,310.3,34.4,138.11,28.25,24.62,36.35,0.04,-272.73,-272.74,-56,474,-934,23.5,6.1,-16.0,23.5,6.3,-15.5,5.73,2.43,-23.4,28.4
2012-05-04 01:27:00,2.0,1.8507,0.0009,393.11,0.43,311.1,39.1,138.11,28.26,24.62,36.35,0.04,-272.73,-272.74,-55,474,-934,23.5,6.0,-16.1,23.5,6.3,-15.5,5.73,2.32,-23.3,28.5
2012-05-04 01:28:00,0.0,1.8818,0.0203,398.96,3.78,302.9,44.2,138.10,28.28,24.62,36.35,0.04,-272.73,-272.74,-56,560,-934,23.6,5.9,-16.2,23.6,6.2,-15.7,5.73,2.26,-23.3,28.6
2012-05-04 01:29:00,0.0,1.9026,0.0009,403.25,0.31,285.3,32.7,138.10,28.30,24.62,36.35,0.04,-272.74,-272.74,-56,561,-934,23.6,6.0,-16.0,23.6,6.3,-15.4,5.73,2.42,-23.3,28.6
2012-05-04 01:30:00,0.0,1.9027,0.0009,403.27,0.45,296.5,34.8,138.10,28.31,24.62,36.34,0.04,-272.73,-272.74,-55,561,-934,23.7,6.1,-15.8,23.7,6.4,-15.2,5.73,2.40,-23.3,28.3
2012-05-04 01:31:00,0.0,1.9044,0.0009,403.29,0.39,282.5,36.0,138.10,28.33,24.62,36.34,0.04,-272.74,-272.73,-56,561,-935,23.7,6.0,-16.0,23.7,6.3,-15.4,5.73,2.28,-23.4,27.6
2012-05-04 01:32:00,0.0,1.9037,0.0011,403.34,0.39,275.6,36.2,138.11,28.34,24.62,36.35,0.04,-272.74,-272.74,-56,562,-935,23.7,6.0,-16.0,23.7,6.3,-15.4,5.73,2.41,-23.5,27.2
2012-05-04 01:33:00,0.0,1.9053,0.0011,403.28,0.34,256.9,33.0,138.11,28.35,24.62,36.35,0.04,-272.74,-272.74,-56,562,-935,23.7,6.0,-16.0,23.7,6.3,-15.5,5.73,2.43,-23.6,26.9
2012-05-04 01:34:00,0.0,1.9057,0.0009,403.36,0.40,244.8,38.8,138.11,28.35,24.62,36.35,0.04,-272.73,-272.73,-56,562,-935,23.7,6.1,-15.9,23.6,6.4,-15.4,5.73,2.28,-23.8,26.7
2012-05-04 01:35:00,0.0,1.9085,0.0025,403.46,0.38,236.2,31.4,138.12,28.35,24.62,36.35,0.04,-272.74,-272.74,-56,562,-935,23.6,5.8,-16.4,23.6,6.1,-15.8,5.73,2.35,-24.0,26.6
2012-05-04 01:36:00,0.0,1.9068,0.0016,403.72,0.47,229.2,33.1,138.12,28.35,24.62,36.34,0.04,-272.74,-272.74,-56,562,-935,23.6,6.0,-16.1,23.5,6.3,-15.6,5.73,2.46,-24.1,26.4
2012-05-04 01:37:00,0.0,1.9057,0.0012,403.64,0.36,214.0,36.8,138.12,28.34,24.62,36.34,0.04,-272.73,-272.74,-56,562,-935,23.6,6.0,-16.1,23.5,6.3,-15.6,5.73,2.40,-24.3,26.3
2012-05-04 01:38:00,0.0,1.9080,0.0019,403.64,0.43,203.4,42.1,138.13,28.33,24.62,36.33,0.04,-272.74,-272.73,-56,562,-935,23.6,5.9,-16.4,23.5,6.1,-15.9,5.73,2.29,-24.4,26.1
2012-05-04 01:39:00,0.0,1.9053,0.0015,403.48,0.44,186.6,39.2,138.13,28.32,24.62,36.34,0.04,-272.73,-272.74,-56,562,-935,23.6,6.0,-16.2,23.5,6.2,-15.7,5.73,2.33,-24.5,26.0
2012-05-04 01:40:00,0.0,1.9072,0.0016,403.61,0.35,183.0,37.6,138.13,28.31,24.62,36.33,0.04,-272.73,-272.74,-56,562,-935,23.5,5.8,-16.6,23.4,6.0,-16.1,5.73,2.44,-24.6,26.0
2012-05-04 01:41:00,0.0,1.9069,0.0026,403.50,0.40,174.9,45.7,138.13,28.29,24.62,36.34,0.04,-272.73,-272.74,-57,562,-935,23.5,5.8,-16.5,23.4,6.1,-16.1,5.73,2.44,-24.7,25.9
2012-05-04 01:42:00,0.0,1.9033,0.0011,403.50,0.34,163.3,36.5,138.14,28.28,24.62,36.33,0.04,-272.74,-272.74,-56,562,-935,23.5,6.1,-16.1,23.3,6.3,-15.7,5.73,2.33,-24.8,25.9
2012-05-04 01:43:00,0.0,1.9026,0.0009,403.48,0.37,158.6,38.5,138.14,28.26,24.62,36.33,0.04,-272.74,-272.74,-56,562,-935,23.4,6.1,-15.9,23.3,6.4,-15.5,5.73,2.28,-24.9,26.5
2012-05-04 01:44:00,0.0,1.9023,0.0010,403.49,0.31,168.1,39.4,138.13,28.25,24.62,36.33,0.04,-272.73,-272.74,-57,562,-935,23.5,6.2,-15.8,23.3,6.4,-15.4,5.73,2.48,-24.9,27.0
2012-05-04 01:45:00,0.0,1.9033,0.0013,403.47,0.35,166.7,34.4,138.13,28.25,24.62,36.33,0.04,-272.74,-272.74,-56,562,-935,23.5,6.1,-15.9,23.4,6.4,-15.4,5.73,2.28,-24.9,27.4
2012-05-04 01:46:00,0.0,1.9029,0.0012,403.64,0.34,176.8,35.1,138.13,28.25,24.62,36.33,0.04,-272.74,-272.74,-57,561,-935,23.5,6.3,-15.5,23.4,6.6,-15.1,5.73,2.40,-24.8,27.6
2012-05-04 01:47:00,0.0,1.9019,0.0008,403.47,0.41,178.9,38.5,138.12,28.25,24.62,36.34,0.04,-272.74,-272.74,-56,562,-935,23.5,6.4,-15.3,23.5,6.7,-14.8,5.73,2.42,-24.7,27.8
2012-05-04 01:48:00,0.0,1.9023,0.0012,403.42,0.42,190.4,41.8,138.12,28.26,24.62,36.34,0.04,-272.74,-272.74,-56,562,-935,23.5,6.5,-15.1,23.5,6.8,-14.6,5.73,2.28,-24.7,28.0
2012-05-04 01:49:00,0.0,1.9038,0.0012,403.44,0.45,193.8,37.0,138.12,28.27,24.62,36.35,0.04,-272.74,-272.74,-56,562,-935,23.6,6.4,-15.3,23.5,6.7,-14.8,5.73,2.39,-24.6,28.1
2012-05-04 01:50:00,0.0,1.9023,0.0012,403.27,0.34,206.5,38.2,138.11,28.28,24.62,36.35,0.04,-272.74,-272.74,-56,562,-935,23.6,6.5,-15.1,23.6,6.8,-14.6,5.73,2.43,-24.6,28.2
2012-05-04 01:51:00,0.0,1.9021,0.0008,403.35,0.43,200.3,42.7,138.11,28.30,24.61,36.34,0.04,-272.73,-272.73,-56,562,-935,23.6,6.6,-15.0,23.6,6.9,-14.4,5.73,2.30,-24.5,28.3
2012-05-04 01:52:00,0.0,1.9012,0.0011,403.32,0.49,214.0,39.2,138.11,28.31,24.62,36.35,0.04,-272.74,-272.74,-56,562,-935,23.7,6.7,-14.8,23.6,6.9,-14.3,5.73,2.33,-24.5,28.4
2012-05-04 01:53:00,0.0,1.9019,0.0008,403.36,0.44,211.8,31.8,138.10,28.33,24.62,36.35,0.04,-272.74,-272.74,-56,562,-935,23.7,6.7,-14.6,23.7,7.0,-14.1,5.73,2.44,-24.4,28.5
2012-05-04 01:54:00,0.0,1.9015,0.0010,403.19,0.38,218.5,40.7,138.10,28.35,24.62,36.34,0.04,-272.73,-272.73,-56,562,-935,23.7,6.9,-14.4,23.7,7.2,-13.9,5.73,2.37,-24.4,28.5
2012-05-04 01:55:00,0.0,1.9017,0.0008,403.44,0.47,222.5,36.1,138.10,28.37,24.62,36.35,0.04,-272.74,-272.74,-56,562,-935,23.7,6.8,-14.4,23.7,7.1,-13.9,5.73,2.29,-24.4,28.6
2012-05-04 01:56:00,0.0,1.9023,0.0012,403.38,0.39,222.2,40.2,138.10,28.39,24.61,36.35,0.04,-272.74,-272.74,-56,562,-935,23.8,6.8,-14.4,23.8,7.1,-13.9,5.73,2.38,-24.3,28.4
2012-05-04 01:57:00,0.0,1.9040,0.0012,403.41,0.42,227.1,35.8,138.10,28.41,24.62,36.35,0.04,-272.74,-272.73,-56,563,-935,23.8,6.6,-14.8,23.8,6.9,-14.2,5.73,2.39,-24.3,27.9
2012-05-04 01:58:00,0.0,1.9027,0.0012,403.42,0.46,209.6,34.1,138.10,28.42,24.62,36.35,0.04,-272.74,-272.74,-56,563,-935,23.8,6.8,-14.5,23.8,7.1,-14.0,5.73,2.36,-24.4,27.4
2012-05-04 01:59:00,0.0,1.9034,0.0011,403.44,0.42,211.7,36.7,138.11,28.43,24.62,36.35,0.04,-272.74,-272.74,-56,563,-935,23.8,6.7,-14.6,23.7,7.0,-14.2,5.73,2.28,-24.5,27.1
2012-05-04 02:00:00,0.0,1.9024,0.0011,403.57,0.47,203.2,31.8,138.11,28.44,24.62,36.34,0.04,-272.74,-272.74,-56,563,-935,23.7,6.8,-14.4,23.7,7.1,-13.9,5.73,2.46,-24.6,26.9
2012-05-04 02:01:00,0.0,1.9023,0.0009,403.52,0.42,195.2,35.3,138.11,28.44,24.62,36.35,0.04,-272.74,-272.74,-57,563,-935,23.7,6.9,-14.4,23.7,7.2,-13.9,5.73,2.40,-24.7,26.7
2012-05-04 02:02:00,0.0,1.9024,0.0009,403.55,0.44,186.9,34.1,138.12,28.43,24.62,36.35,0.04,-272.74,-272.74,-56,563,-935,23.7,6.7,-14.6,23.6,7.1,-14.1,5.73,2.27,-24.8,26.5
2012-05-04 02:03:00,0.0,1.9027,0.0010,403.55,0.41,177.2,33.9,138.12,28.43,24.62,36.35,0.04,-272.73,-272.74,-56,563,-935,23.7,6.6,-14.8,23.6,6.9,-14.4,5.73,2.35,-24.8,26.4
2012-05-04 02:04:00,0.0,1.9054,0.0021,403.58,0.48,187.6,39.9,138.12,28.42,24.62,36.34,0.04,-272.73,-272.74,-56,563,-936,23.6,6.2,-15.6,23.6,6.5,-15.1,5.73,2.46,-24.9,26.2
2012-05-04 02:05:00,0.0,1.9083,0.0010,403.57,0.41,175.4,41.9,138.13,28.41,24.62,36.35,0.04,-272.73,-272.73,-57,563,-935,23.6,5.8,-16.5,23.5,6.1,-16.0,5.73,2.39,-25.0,26.3
2012-05-04 02:06:00,0.0,1.9064,0.0018,403.53,0.41,162.4,35.3,138.13,28.40,24.62,36.34,0.04,-272.73,-272.73,-57,563,-935,23.6,6.1,-15.9,23.5,6.3,-15.5,5.73,2.28,-25.0,26.3
2012-05-04 02:07:00,0.0,1.9057,0.0012,403.63,0.46,155.6,32.0,138.13,28.39,24.62,36.34,0.04,-272.74,-272.74,-57,563,-935,23.6,6.1,-15.9,23.5,6.4,-15.4,5.73,2.33,-25.1,26.2
2012-05-04 02:08:00,0.0,1.9060,0.0010,403.52,0.35,167.0,32.8,138.13,28.37,24.62,36.34,0.04,-272.74,-272.74,-56,563,-936,23.5,6.0,-16.0,23.5,6.3,-15.6,5.73,2.45,-25.1,26.1
2012-05-04 02:09:00,0.0,1.9080,0.0013,403.65,0.40,148.8,41.8,138.14,28.36,24.62,36.34,0.04,-272.74,-272.74,-56,563,-936,23.5,5.8,-16.7,23.4,6.0,-16.1,5.73,2.42,-25.1,26.0
2012-05-04 02:10:00,0.0,1.9096,0.0009,403.48,0.41,147.2,36.5,138.14,28.35,24.62,36.34,0.04,-272.74,-272.74,-57,562,-936,23.5,5.6,-17.0,23.4,5.9,-16.5,5.73,2.27,-25.2,26.3
2012-05-04 02:11:00,0.0,1.9094,0.0008,403.50,0.39,146.3,42.1,138.13,28.34,24.62,36.33,0.04,-272.73,-272.74,-57,562,-935,23.5,5.6,-17.0,23.4,5.9,-16.5,5.73,2.42,-25.1,26.9
2012-05-04 02:12:00,0.0,1.9094,0.0010,403.41,0.46,158.4,38.2,138.13,28.33,24.62,36.35,0.04,-272.74,-272.74,-56,562,-935,23.5,5.6,-16.9,23.5,5.9,-16.5,5.73,2.31,-25.0,27.3
2012-05-04 02:13:00,0.0,1.9089,0.0010,403.43,0.41,164.4,36.4,138.12,28.33,24.62,36.34,0.04,-272.74,-272.74,-57,562,-935,23.6,5.8,-16.4,23.5,6.1,-16.0,5.73,2.45,-24.9,27.6
2012-05-04 02:14:00,0.0,1.9067,0.0011,403.42,0.41,177.5,34.4,138.12,28.34,24.62,36.35,0.04,-272.74,-272.73,-56,562,-935,23.6,6.1,-15.9,23.5,6.3,-15.5,5.73,2.29,-24.9,27.7
2012-05-04 02:15:00,0.0,1.9038,0.0011,403.51,0.39,186.4,37.8,138.12,28.35,24.62,36.34,0.04,-272.73,-272.74,-56,562,-935,23.6,6.4,-15.3,23.6,6.6,-14.9,5.73,2.35,-24.8,27.9
2012-05-04 02:16:00,0.0,1.9037,0.0011,403.48,0.40,194.1,31.9,138.11,28.36,24.62,36.34,0.04,-272.74,-272.74,-57,562,-935,23.7,6.4,-15.2,23.6,6.7,-14.8,5.73,2.44,-24.7,28.1
2012-05-04 02:17:00,0.0,1.9042,0.0010,403.51,0.43,194.7,38.8,138.11,28.37,24.62,36.35,0.04,-272.73,-272.74,-56,562,-935,23.7,6.4,-15.2,23.7,6.7,-14.7,5.73,2.34,-24.6,28.2